Date String (YYYY-MM-DD hh:mm:ss) UTC,Instrument flags,Ambient pressure (hPa),Sample flow (lpm),Bypass flow (lpm),Sample temperature (°C),Ambient temperature (°C),ASC tube jacket temperature (°C),LED temperature (°C),Box temperature (°C),Sample RH (%),Span deviation,Mass concentration (μg/m³),Mass concentration (μg/m³),Mass concentration (μg/m³)
DateTimeUTC,F1_M11,P_M11,Q1_M11,Q2_M11,T1_M11,T2_M11,T3_M11,T4_M11,T5_M11,U1_M11,ZSPAN_M11,X0_M11,X2_M11,X1_M11
2022-10-10 22:00:00,,0823.8,5.01,0.00,29.5,28.0,00.0,38.2,31.4,11.0,0000.0,0005.71,0003.61,0003.28
2022-10-10 22:01:00,,0823.7,4.99,0.00,29.5,28.1,00.0,38.2,31.4,10.9,0000.0,0005.43,0003.58,0003.27
2022-10-10 22:02:00,,0823.7,5.01,0.00,29.6,28.3,00.0,38.2,31.5,10.9,0000.0,0005.41,0003.58,0003.27
2022-10-10 22:03:00,,0823.7,4.99,0.00,29.6,28.4,00.0,38.3,31.5,10.8,0000.0,0005.46,0003.59,0003.27
2022-10-10 22:04:00,,0823.7,5.01,0.00,29.6,28.5,00.0,38.3,31.6,11.1,0000.0,0005.68,0003.59,0003.26
2022-10-10 22:05:00,,0823.7,5.00,0.00,29.7,27.8,00.0,38.3,31.6,11.4,0000.0,0005.58,0003.58,0003.27
2022-10-10 22:06:00,,0823.6,4.98,0.00,29.6,26.3,00.0,38.2,31.4,11.2,0000.0,0005.51,0003.56,0003.28
2022-10-10 22:07:00,,0823.7,5.00,0.00,29.5,26.0,00.0,38.2,31.3,11.3,0000.0,0005.63,0003.57,0003.28
2022-10-10 22:08:00,,0823.7,5.00,0.00,29.5,26.3,00.0,38.1,31.2,11.4,0000.0,0005.95,0003.55,0003.28
2022-10-10 22:09:00,,0823.7,5.00,0.00,29.4,26.6,00.0,38.1,31.1,11.2,0000.0,0005.95,0003.55,0003.29
2022-10-10 22:10:00,,0823.7,4.99,0.00,29.4,26.9,00.0,38.1,31.1,11.2,0000.0,0005.95,0003.51,0003.29
2022-10-10 22:11:00,,0823.7,4.99,0.00,29.4,27.3,00.0,38.1,31.1,11.4,0000.0,0006.78,0003.52,0003.28
2022-10-10 22:12:00,,0823.7,5.00,0.00,29.4,27.5,00.0,38.1,31.2,11.4,0000.0,0007.36,0003.53,0003.27
2022-10-10 22:13:00,,0823.7,5.00,0.00,29.4,27.8,00.0,38.1,31.3,11.3,0000.0,0007.43,0003.57,0003.28
2022-10-10 22:14:00,,0823.7,4.99,0.00,29.4,28.0,00.0,38.1,31.3,11.1,0000.0,0007.51,0003.58,0003.28
2022-10-10 22:15:00,,0823.7,5.01,0.00,29.4,28.1,00.0,38.1,31.4,11.1,0000.0,0007.39,0003.59,0003.29
2022-10-10 22:16:00,,0823.7,4.99,0.00,29.5,28.2,00.0,38.1,31.4,11.1,0000.0,0007.48,0003.60,0003.28
2022-10-10 22:17:00,,0823.7,5.01,0.00,29.5,28.4,00.0,38.1,31.4,11.0,0000.0,0007.74,0003.58,0003.26
2022-10-10 22:18:00,,0823.7,4.99,0.00,29.5,28.5,00.0,38.2,31.5,11.0,0000.0,0007.62,0003.55,0003.24
2022-10-10 22:19:00,,0823.7,5.01,0.00,29.6,28.6,00.0,38.2,31.5,11.0,0000.0,0007.41,0003.55,0003.24
2022-10-10 22:20:00,,0823.7,5.00,0.00,29.6,28.7,00.0,38.2,31.6,10.8,0000.0,0007.45,0003.57,0003.24
2022-10-10 22:21:00,,0823.7,5.00,0.00,29.6,27.9,00.0,38.2,31.5,11.2,0000.0,0007.43,0003.57,0003.24
2022-10-10 22:22:00,,0823.6,5.00,0.00,29.6,26.4,00.0,38.2,31.3,11.0,0000.0,0007.18,0003.58,0003.25
2022-10-10 22:23:00,,0823.6,5.01,0.00,29.5,26.0,00.0,38.1,31.2,11.2,0000.0,0007.51,0003.62,0003.28
2022-10-10 22:24:00,,0823.6,4.99,0.00,29.4,26.2,00.0,38.1,31.1,11.4,0000.0,0007.46,0003.62,0003.31
2022-10-10 22:25:00,,0823.7,4.99,0.00,29.3,26.5,00.0,38.1,31.1,11.4,0000.0,0007.32,0003.59,0003.32
2022-10-10 22:26:00,,0823.7,5.00,0.00,29.3,26.9,00.0,38.1,31.1,11.2,0000.0,0007.52,0003.63,0003.35
2022-10-10 22:27:00,,0823.6,5.01,0.00,29.3,27.2,00.0,38.1,31.1,11.3,0000.0,0007.92,0003.66,0003.37
2022-10-10 22:28:00,,0823.6,5.00,0.00,29.3,27.5,00.0,38.0,31.2,11.2,0000.0,0007.74,0003.71,0003.40
2022-10-10 22:29:00,,0823.7,5.00,0.00,29.3,27.7,00.0,38.1,31.2,11.1,0000.0,0007.79,0003.74,0003.42
2022-10-10 22:30:00,,0823.5,5.01,0.00,29.3,27.8,00.0,38.1,31.3,11.2,0000.0,0007.89,0003.78,0003.44
2022-10-10 22:31:00,,0823.5,4.98,0.00,29.4,28.0,00.0,38.1,31.3,11.1,0000.0,0007.98,0003.78,0003.44
2022-10-10 22:32:00,,0823.5,5.01,0.00,29.4,28.2,00.0,38.1,31.4,11.1,0000.0,0008.61,0003.79,0003.43
2022-10-10 22:33:00,,0823.4,4.99,0.00,29.4,28.3,00.0,38.1,31.4,10.9,0000.0,0008.74,0003.77,0003.40
2022-10-10 22:34:00,,0823.4,5.01,0.00,29.5,28.4,00.0,38.1,31.4,10.9,0000.0,0008.42,0003.74,0003.37
2022-10-10 22:35:00,,0823.3,4.99,0.00,29.5,28.5,00.0,38.2,31.5,10.8,0000.0,0008.50,0003.73,0003.33
2022-10-10 22:36:00,,0823.3,5.01,0.00,29.6,28.6,00.0,38.2,31.5,10.8,0000.0,0008.56,0003.74,0003.31
2022-10-10 22:37:00,,0823.3,5.00,0.00,29.6,28.4,00.0,38.2,31.6,10.7,0000.0,0008.33,0003.69,0003.28
2022-10-10 22:38:00,,0823.4,5.00,0.00,29.6,27.2,00.0,38.2,31.4,10.7,0000.0,0008.49,0003.66,0003.25
2022-10-10 22:39:00,,0823.4,5.00,0.00,29.5,26.7,00.0,38.1,31.3,10.7,0000.0,0008.99,0003.60,0003.23
2022-10-10 22:40:00,,0823.4,5.01,0.00,29.5,26.8,00.0,38.1,31.3,10.7,0000.0,0009.24,0003.56,0003.20
2022-10-10 22:41:00,,0823.4,5.01,0.00,29.4,27.1,00.0,38.1,31.2,10.7,0000.0,0009.17,0003.53,0003.17
2022-10-10 22:42:00,,0823.3,5.00,0.00,29.4,27.4,00.0,38.1,31.2,10.9,0000.0,0009.14,0003.54,0003.17
2022-10-10 22:43:00,,0823.4,5.00,0.00,29.4,27.7,00.0,38.1,31.3,11.1,0000.0,0008.54,0003.54,0003.18
2022-10-10 22:44:00,,0823.4,5.01,0.00,29.4,27.9,00.0,38.1,31.3,11.2,0000.0,0008.03,0003.54,0003.19
2022-10-10 22:45:00,,0823.4,4.98,0.00,29.5,28.1,00.0,38.2,31.4,11.3,0000.0,0007.99,0003.53,0003.21
2022-10-10 22:46:00,,0823.3,5.01,0.00,29.5,28.2,00.0,38.2,31.4,11.3,0000.0,0007.96,0003.54,0003.22
2022-10-10 22:47:00,,0823.3,4.98,0.00,29.5,28.4,00.0,38.2,31.5,11.2,0000.0,0007.90,0003.51,0003.23
2022-10-10 22:48:00,,0823.2,5.01,0.00,29.6,28.5,00.0,38.2,31.5,10.8,0000.0,0008.02,0003.55,0003.24
2022-10-10 22:49:00,,0823.2,4.98,0.00,29.6,28.6,00.0,38.2,31.6,10.8,0000.0,0007.68,0003.64,0003.26
2022-10-10 22:50:00,,0823.2,5.00,0.00,29.6,28.3,00.0,38.3,31.6,10.7,0000.0,0007.23,0003.67,0003.27
2022-10-10 22:51:00,,0823.2,5.01,0.00,29.6,26.8,00.0,38.2,31.3,10.8,0000.0,0007.01,0003.69,0003.29
2022-10-10 22:52:00,,0823.3,4.99,0.00,29.5,25.8,00.0,38.2,31.2,10.9,0000.0,0006.98,0003.69,0003.29
2022-10-10 22:53:00,,0823.3,5.00,0.00,29.4,26.0,00.0,38.1,31.1,11.0,0000.0,0006.79,0003.69,0003.30
2022-10-10 22:54:00,,0823.2,5.01,0.00,29.4,26.3,00.0,38.1,31.0,11.0,0000.0,0006.71,0003.68,0003.30
2022-10-10 22:55:00,,0823.2,5.01,0.00,29.3,26.7,00.0,38.1,31.1,10.8,0000.0,0006.73,0003.67,0003.30
2022-10-10 22:56:00,,0823.2,5.00,0.00,29.3,27.0,00.0,38.1,31.1,11.0,0000.0,0006.57,0003.67,0003.30
2022-10-10 22:57:00,,0823.2,4.99,0.00,29.3,27.3,00.0,38.1,31.1,11.1,0000.0,0006.54,0003.69,0003.29
2022-10-10 22:58:00,,0823.2,4.99,0.00,29.3,27.6,00.0,38.1,31.2,11.2,0000.0,0006.63,0003.71,0003.30
2022-10-10 22:59:00,,0823.2,5.02,0.00,29.4,27.9,00.0,38.1,31.3,11.1,0000.0,0006.62,0003.70,0003.30
